Theta_e
326 328 329 330 330 330 330 330 330 330 331 331 332 331 332 333 333 333 334 334 333 334 333 332 333 332 331 331 330 330 330 330 329 329 328 327 327 328 328 327 326 327
325 325 326 327 329 329 330 329 329 329 329 330 331 331 331 331 331 331 332 333 333 333 332 331 331 332 331 330 330 329 330 330 329 329 328 328 327 327 327 327 326 326
323 324 324 325 326 327 328 329 329 330 331 330 331 331 331 331 330 329 330 331 332 331 331 330 330 331 330 330 329 329 329 330 329 328 328 327 327 326 326 326 327 326
323 323 324 324 324 325 327 328 328 329 330 330 330 331 331 330 331 330 328 329 331 331 331 330 330 331 330 330 330 329 329 329 328 327 327 326 325 325 324 324 325 326
322 323 323 324 324 324 325 327 328 328 329 329 329 329 330 330 331 331 329 329 330 331 330 329 330 331 330 330 330 329 329 328 328 328 327 326 325 324 323 323 324 326
321 322 323 323 323 324 324 326 327 328 328 329 329 329 329 329 329 330 330 330 329 330 330 329 330 330 330 329 330 329 328 329 329 329 328 327 326 325 324 324 325 327
319 321 322 323 323 324 325 326 326 327 327 329 330 329 329 329 328 329 330 330 329 329 329 329 330 330 329 329 329 328 328 329 329 329 328 326 326 326 326 327 327 329
318 319 320 322 323 324 325 325 325 326 326 327 328 328 329 328 328 328 328 329 329 328 328 329 330 330 329 329 327 327 328 329 330 330 329 327 326 327 328 328 329 330
317 318 319 320 321 323 324 325 325 325 325 326 327 328 328 328 327 328 328 328 327 327 328 329 330 329 329 328 326 326 328 330 331 331 329 328 328 328 329 329 330 330
315 316 317 318 319 322 324 324 324 324 325 325 326 327 328 327 327 327 328 328 328 327 327 328 329 329 329 328 326 327 328 329 330 330 329 330 330 330 330 329 329 330
313 314 315 315 317 320 322 323 324 325 325 325 326 326 327 327 326 326 327 328 328 327 327 328 328 328 329 328 327 326 327 328 329 330 331 332 331 331 330 329 329 330
313 313 313 313 315 318 320 322 323 325 326 325 326 326 326 326 325 325 327 328 328 327 327 327 327 327 328 328 328 327 326 328 330 330 331 331 331 331 330 329 329 330
312 312 312 312 313 315 318 321 322 324 325 325 325 326 326 326 325 325 327 328 328 327 326 325 326 327 327 327 327 328 327 328 330 330 330 330 330 331 331 330 330 329
312 311 312 312 311 313 316 319 321 322 323 324 325 325 325 325 325 325 327 328 328 327 326 325 326 327 327 327 326 326 326 327 328 330 330 330 330 330 330 330 329 329
311 311 311 311 311 311 313 316 319 321 322 323 324 324 324 325 324 325 326 327 327 327 327 326 326 327 327 327 327 326 327 328 328 329 329 329 328 328 328 328 328 329
310 310 310 310 310 310 311 312 315 318 320 321 322 323 324 324 324 324 325 326 326 326 325 324 325 326 326 326 326 326 326 326 327 328 328 327 327 327 328 329 329 331
309 309 310 309 309 309 309 310 312 314 317 318 320 321 323 324 323 323 324 325 325 325 325 323 323 324 325 325 326 326 325 324 325 326 327 329 328 326 326 328 329 329
308 308 308 309 309 309 309 308 309 311 313 315 316 318 319 321 322 322 322 323 323 324 325 325 324 325 325 325 324 325 324 324 324 324 325 327 329 328 327 327 326 326
307 307 308 308 308 308 308 308 307 308 310 311 312 313 315 316 318 319 320 321 321 322 323 324 325 325 324 323 323 324 325 325 325 324 324 325 327 328 327 327 327 325
306 306 307 307 307 307 307 307 307 307 307 307 308 309 311 313 314 315 316 318 319 320 320 322 324 325 324 324 324 325 326 326 325 324 324 325 326 327 327 328 327 327
305 305 306 306 306 306 306 306 306 306 306 306 306 307 308 309 310 311 312 313 315 316 317 320 322 324 324 325 325 325 326 326 325 324 324 324 325 325 327 328 327 327
305 305 305 305 305 305 306 305 305 306 305 305 305 306 306 306 307 308 309 310 311 312 314 316 319 322 323 324 325 325 325 325 325 324 324 323 323 323 325 327 326 327
304 304 304 304 305 305 305 305 305 305 305 305 305 305 305 305 305 306 307 308 308 309 311 312 314 317 319 321 323 324 325 325 325 325 324 324 324 324 324 325 326 325
304 304 304 304 304 304 304 304 304 304 304 304 304 305 305 304 304 305 305 305 306 307 308 309 310 312 314 317 320 322 324 324 324 325 325 324 324 324 323 325 326 324
303 303 303 303 303 303 303 303 303 303 303 303 304 304 304 304 304 304 304 304 304 305 306 307 308 309 310 312 315 318 321 322 323 324 324 324 324 324 323 324 325 323
303 303 303 303 303 303 303 303 303 303 303 303 303 303 303 303 303 303 303 303 303 303 304 305 306 307 308 309 311 313 316 318 320 321 321 322 323 323 323 322 323 323
Wind_Speed
6 7 8 9 9 10 12 13 13 15 16 17 20 20 19 20 21 20 21 21 20 21 21 21 21 22 22 21 21 20 18 18 19 19 21 23 22 20 18 18 20 19
7 8 8 8 8 8 10 12 14 15 15 15 18 21 21 22 24 24 23 23 24 24 23 23 23 24 25 24 23 22 20 19 18 18 20 21 21 19 18 18 19 19
9 9 8 8 9 9 9 11 13 13 15 16 18 20 22 23 25 26 25 25 27 26 24 24 26 27 27 25 24 24 22 20 19 19 20 21 22 21 18 17 16 16
10 10 11 11 11 11 10 11 12 12 14 17 19 21 22 23 25 26 26 27 28 28 27 26 28 29 28 26 25 25 24 21 20 19 20 21 22 22 20 18 17 17
11 11 12 13 14 14 12 12 12 13 14 16 19 22 23 23 24 26 28 28 28 29 28 27 28 30 29 26 25 25 23 21 20 19 20 21 21 22 22 21 21 19
10 11 12 14 14 15 14 13 13 14 15 16 18 21 23 24 25 26 29 29 28 28 27 26 28 30 29 25 23 23 22 20 20 19 20 21 22 22 21 21 20 19
12 12 13 14 15 14 14 14 15 16 16 16 17 19 22 25 26 27 30 29 27 27 25 25 27 28 29 27 24 23 22 21 20 19 20 21 21 20 20 20 18 18
15 15 14 15 15 15 15 16 17 17 17 17 19 20 22 26 28 29 29 27 26 25 22 22 25 27 27 27 25 23 22 21 19 18 19 19 20 19 19 18 18 18
17 17 16 16 16 16 17 18 19 19 18 18 20 21 23 28 30 29 27 25 23 21 19 20 22 25 26 25 24 23 21 20 19 19 19 19 19 19 19 19 19 19
17 17 17 16 16 16 17 18 19 20 20 19 19 20 23 28 29 29 28 26 22 19 19 20 20 22 24 23 23 23 23 22 20 20 19 18 18 19 19 18 19 19
18 18 18 17 16 16 17 18 18 19 19 19 18 19 22 27 29 31 30 23 18 17 17 17 18 20 22 23 24 24 25 23 20 19 19 18 18 18 18 18 18 19
19 18 19 19 18 17 17 18 18 18 18 18 18 18 21 25 28 28 24 16 12 13 14 15 16 19 21 22 23 24 25 23 21 19 19 18 18 18 18 18 19 20
21 20 20 20 19 18 18 18 17 17 16 16 16 17 19 21 23 22 15 11 10 11 13 15 15 17 19 21 22 23 22 22 20 18 17 17 18 17 17 18 19 19
22 21 21 21 20 19 19 18 17 16 15 14 14 16 18 19 20 17 10 5 7 9 11 13 14 16 18 20 20 20 21 21 20 17 16 16 17 18 17 18 19 19
22 22 22 23 22 20 19 18 17 16 15 13 13 14 17 19 18 15 11 7 5 7 8 10 13 15 17 18 19 19 20 20 19 17 16 17 17 18 18 18 18 17
22 22 23 23 23 22 20 19 18 17 16 14 13 13 14 16 16 12 8 6 6 7 8 9 11 13 15 17 17 18 19 20 18 17 17 17 18 18 18 18 17 16
22 22 22 23 23 23 22 20 19 18 17 16 15 13 13 14 14 12 6 3 3 5 5 7 10 11 13 16 16 17 19 20 18 17 16 15 17 19 18 18 18 17
22 22 22 23 23 23 22 21 20 19 18 17 17 15 14 13 14 14 10 4 1 2 3 5 8 10 11 14 16 17 18 19 19 18 16 15 17 19 18 17 17 17
23 22 23 23 23 23 22 22 21 20 19 20 20 20 17 15 14 14 13 9 4 1 4 8 9 9 11 14 17 18 19 19 20 20 17 16 17 18 17 16 16 16
23 23 23 23 23 23 23 23 22 21 20 19 20 22 22 20 17 15 15 14 10 5 4 7 9 10 13 17 20 20 20 19 20 20 20 19 18 17 17 16 16 16
23 23 23 22 22 22 23 23 23 22 21 19 18 20 22 24 24 22 18 16 14 11 8 8 10 12 14 16 19 20 20 19 19 20 21 21 19 18 17 17 16 15
22 23 23 23 23 22 23 23 23 22 22 20 19 19 19 21 25 27 26 23 19 15 12 10 10 12 13 14 16 19 19 19 19 20 21 21 21 19 18 18 17 16
21 21 22 23 23 23 23 23 22 22 22 22 21 21 20 19 20 22 26 29 26 22 18 15 12 12 14 14 14 17 19 20 20 21 21 21 20 19 18 17 17 17
20 20 21 22 23 24 24 24 23 23 23 22 22 22 21 20 19 18 20 25 28 27 25 22 19 15 13 14 14 16 18 19 21 22 23 22 20 19 16 15 16 16
20 20 21 21 22 23 23 24 24 24 24 23 23 22 22 21 20 19 18 20 23 26 26 26 25 23 19 15 13 15 17 19 20 21 23 23 20 16 13 14 17 17
20 20 21 21 22 23 23 23 23 23 24 24 23 23 23 22 22 21 19 19 21 23 25 26 26 26 25 23 18 13 14 16 18 19 20 21 18 15 14 16 19 18
Wind_Direction
309 290 282 274 278 287 291 290 282 274 270 269 269 267 263 263 262 258 254 251 249 247 245 239 233 231 229 226 228 226 221 220 218 217 219 217 221 226 225 226 229 230
314 288 265 261 279 285 284 289 293 291 286 280 275 273 269 264 260 256 254 252 250 249 248 243 236 231 228 226 227 225 222 223 219 217 218 217 221 227 228 226 227 229
321 312 297 288 293 290 280 281 286 289 288 286 282 279 276 269 262 258 256 254 253 250 246 244 239 233 229 228 224 221 220 220 218 216 217 218 220 224 228 229 229 233
325 321 315 307 302 299 296 292 290 289 287 287 285 282 279 274 265 259 255 255 254 250 244 243 242 235 230 228 223 221 220 219 220 219 218 220 222 224 228 229 232 238
325 319 312 306 304 302 301 298 298 295 290 289 288 285 283 279 270 261 256 253 251 250 245 242 241 234 228 227 225 224 222 218 219 219 218 220 222 226 231 232 233 235
325 321 315 310 309 308 304 305 305 296 288 289 291 290 288 285 278 268 263 259 254 252 246 239 237 232 228 229 228 228 227 221 218 218 219 221 223 227 230 231 232 228
332 324 318 314 314 312 309 308 305 297 291 288 288 290 290 287 283 274 269 266 261 257 247 237 233 228 227 230 230 230 229 225 222 221 224 227 227 228 229 230 228 222
342 331 321 317 317 316 313 310 306 301 298 292 288 290 291 289 286 280 276 272 267 262 250 240 234 227 226 230 229 229 228 225 224 223 226 230 228 226 226 227 224 220
350 341 329 320 317 317 315 311 309 308 305 301 298 297 295 294 290 283 277 272 269 264 253 248 242 229 227 230 229 228 227 224 223 222 225 229 227 225 223 222 224 222
355 350 341 330 322 318 315 312 311 311 309 306 306 306 302 299 295 287 279 270 261 258 256 256 248 234 230 231 228 228 228 226 224 222 224 226 225 225 225 223 225 223
357 355 353 345 334 324 317 314 312 313 312 305 305 310 307 303 301 295 287 273 254 253 261 259 248 239 236 233 233 235 233 228 223 219 218 220 221 223 226 225 224 224
359 358 356 352 344 334 327 322 318 318 314 303 301 309 309 309 310 301 288 272 255 256 263 261 254 248 243 239 240 242 237 228 221 217 215 217 219 221 225 226 225 225
1 0 358 354 350 343 334 327 323 322 317 307 304 308 310 313 317 312 293 265 260 266 262 261 263 254 244 242 247 250 246 236 225 218 216 218 220 220 222 226 227 227
2 1 360 357 353 348 341 332 329 326 320 313 308 308 310 312 318 328 334 298 270 273 265 265 270 259 247 247 252 256 256 247 234 223 217 220 224 223 223 226 228 227
4 3 2 359 357 354 350 343 338 333 325 318 312 309 312 314 316 328 349 352 307 286 281 283 283 270 257 252 251 253 256 251 241 232 226 227 230 229 226 227 228 227
7 5 3 2 1 359 355 352 348 343 335 327 323 318 313 315 318 322 341 352 325 312 315 312 299 278 260 251 248 253 260 260 256 247 235 230 233 233 229 225 224 222
9 7 5 4 4 1 359 357 356 355 350 342 336 333 322 315 317 321 336 3 317 312 317 304 292 277 258 247 242 249 257 261 265 260 245 234 236 238 234 229 226 223
10 8 7 5 4 3 2 1 0 2 4 0 354 349 340 329 323 323 329 340 309 256 231 242 258 261 251 241 243 248 249 252 259 261 254 247 244 243 238 234 233 232
11 9 8 6 5 4 3 3 3 5 9 11 10 7 0 351 342 336 333 331 328 265 223 226 233 242 243 240 244 246 244 246 252 255 254 249 245 245 242 237 236 236
10 9 8 6 5 5 5 5 5 5 6 9 12 13 13 10 3 355 346 340 337 326 276 247 240 242 244 243 243 241 239 243 249 252 252 249 245 247 246 239 236 238
10 9 8 7 5 6 7 6 6 6 5 5 6 9 14 18 17 14 6 357 349 342 325 289 261 249 245 243 243 242 242 244 247 252 254 252 249 250 251 245 236 233
10 9 8 8 6 6 6 6 6 6 5 5 6 6 8 14 19 21 19 15 8 358 346 323 287 264 253 246 240 239 243 246 248 251 251 252 254 254 258 258 245 233
10 9 9 9 8 8 8 6 6 5 5 5 6 6 6 7 11 16 20 21 19 14 6 352 329 297 276 264 249 241 241 242 246 248 247 251 259 260 263 266 253 240
10 10 10 10 9 9 9 8 8 7 6 6 5 5 6 6 5 6 11 17 20 20 17 11 3 346 315 290 270 256 249 242 243 246 245 247 258 264 265 263 250 240
12 12 12 12 10 10 9 9 8 8 8 8 8 7 6 5 6 5 4 9 14 17 17 15 13 9 358 337 302 276 264 253 248 248 248 249 255 260 259 251 241 236
14 14 15 15 13 12 11 10 8 8 8 9 9 10 9 7 8 8 6 5 7 11 14 14 12 10 8 3 349 319 288 271 263 257 251 249 248 242 239 240 238 234